{"data":{"norad_id":61754,"epoch":"2026-09-19T21:39:10.434240Z","epoch_age_seconds":66175,"freshness":"FRESH","line1":"1 61754U 24199V   26262.90220410  .00071043  00000+0  58559-3 0  9993","line2":"2 61754  97.2724 143.0316 0001194 256.2776 103.8354 15.70146378152457","mean_motion":15.70146378,"eccentricity":0.0001194,"inclination_deg":97.2724,"raan_deg":143.0316,"arg_perigee_deg":256.2776,"mean_anomaly_deg":103.8354,"bstar":0.00058559,"rev_number":15245,"period_min":91.711194585197,"perigee_km":357.67394097506,"apogee_km":359.28264470699,"semimajor_km":6736.615292841,"source":"CELESTRAK","updated_at":"2026-09-20T09:00:45.240773Z"}}